1st Responders/1st Detectors/Storm Spotters Weather Summary for Lewis County, KY

Forecast Maps


Reg. NEXRAD Animation


National Fire Danger: Day 1 & 2 Map

Current NWS Watch/Warnings

SPC Convective Day 1 Outlook


Day 2 Outlook

(Click images to enlarge|Page will refresh every 5 minutes)
UK Ag. Weather Center Desktop Severe Weather Service[HERE]
Lewis County, KY Hazardous Weather Outlook Webcast
(9 AM to 9 PM Mon-Fri)
[Fast]
[Dial-up]


UKAWC 1st Detectors/1st Responders Precision Weather Forecast For LEWIS County, Kentucky
(based on the NWS County Digital Forecast)

ISSUED AT 18:00 UTC ON SUNDAY JUN 24 2018
DAY SUNDAY
EDT 3HR 3P 4P 5P 6P 7P
MAX/MIN -- -- -- -- 81°
TEMP 81° 81° 81° 81° 79°
SKY COVER 46% 41% 38% 36% 31%
Clouds
DEW PT 67° 67° 67° 67° 67°
RH 65% 60% 63% 62% 68%
POP 12HR -- -- -- -- --
RAIN/SNOW (liq.equ) -- -- -- -- --
SNOWFALL -- -- -- -- --
WIND SPEED(MPH) 7 7 7 6 5
WIND Gust(MPH) 7 7 7 6 5
WIND DIR W W W NW NW
DEW -- -- -- -- --
HeatIndex 83 84 83 83 79
Rain Showers -- -- -- -- --
Thunder Storm -- -- -- -- --
WIND CHILL -- -- -- -- --
SPRAY COND
DRY COND
LIVESTOCK HEATSTRESS 76.73 76.12 76.48 76.36 75.44



DAY MONDAY TUESDAY WEDNESDAY THURSDAY FRIDAY SATURDAY
EDT 6HR 8P 9P 10P 11P MIDN 1A 2A 3A 4A 5A 6A 7A 8A 9A 10A 11A NOON 1P 2P 3P 4P 5P 6P 7P 8P 9P 10P 11P MIDN 1A 2A 5A 8A 11A 2P 5P 8P 2A 8A 2P 8P 2A 8A 2P 8P 2A 8A 2P 8P 2A 8A 2P 8P
MAX/MIN -- -- -- -- -- -- -- -- -- -- -- -- 63° -- -- -- -- -- -- -- -- -- -- 83° -- -- -- -- -- -- -- -- 65° -- -- 85° -- -- 70° 85° -- -- 70° 88° -- -- 72° 90° -- -- 72° 92° --
TEMP 77° 76° 72° 70° 68° 67° 67° 65° 65° 65° 63° 63° 67° 70° 74° 76° 79° 79° 81° 83° 83° 83° 81° 81° 79° 76° 74° 72° 70° 70° 68° 67° 68° 77° 83° 85° 81° 72° 72° 83° 81° 74° 74° 88° 85° 74° 74° 90° 86° 74° 74° 90° 88°
SKY COVER 29% 30% 32% 33% 35% 39% 41% 49% 63% 71% 77% 88% 94% 93% 91% 90% 90% 92% 92% 91% 89% 87% 84% 77% 74% 71% 66% 63% 59% 52% 49% 46% 54% 56% 58% 58% 58% 61% 65% 73% 67% 65% 60% 51% 50% 47% 48% 46% 41% 46% 44% 51% 50%
Clouds
DEW PT 67° 67° 67° 65° 65° 65° 65° 65° 63° 63° 63° 63° 65° 65° 65° 65° 65° 65° 65° 65° 65° 65° 65° 67° 67° 67° 65° 65° 65° 65° 63° 63° 63° 67° 70° 70° 72° 68° 68° 72° 70° 70° 70° 72° 70° 70° 70° 72° 74° 70° 70° 70° 72°
RH 71% 75% 81% 83% 89% 89% 93% 96% 96% 96% 100% 100% 92% 84% 76% 71% 64% 62% 58% 56% 56% 56% 58% 62% 66% 71% 75% 81% 81% 84% 84% 90% 84% 68% 63% 62% 71% 87% 87% 69% 67% 87% 87% 58% 61% 84% 87% 55% 65% 87% 87% 52% 61%
POP 12HR 75% -- -- -- -- -- -- -- -- -- -- -- 45% -- -- -- -- -- -- -- -- -- -- -- 60% -- -- -- -- -- -- -- 12% -- -- -- 27% -- 55% -- 63% -- 51% -- 25% -- 25% -- 13% -- 13% -- 13%
RAIN/SNOW (liq.equ) 0.00in -- -- -- -- -- 0.00in -- -- -- -- -- 0.05in -- -- -- -- -- 0.30in -- -- -- -- -- 0.12in -- -- -- -- -- 0.00in -- 0.00in -- 0.00in -- 0.01in -- -- -- -- -- -- -- -- -- -- -- -- -- -- -- --
SNOWFALL 0in -- -- -- -- -- 0in -- -- -- -- -- 0in -- -- -- -- -- 0in -- -- -- -- -- 0in -- -- -- -- -- 0in -- 0in -- 0in -- 0in -- -- -- -- -- -- -- -- -- -- -- -- -- -- -- --
WIND SPEED(MPH) 2 1 0 0 0 0 1 1 1 1 1 1 1 1 2 2 2 2 2 2 2 2 1 1 1 1 1 0 1 1 1 2 2 2 5 6 2 6 7 9 7 7 6 6 1 2 1 2 1 2 1 1 1
WIND DIR NW NW N N N N NE NE NE NE NE NE NE NE E E E E E E E E E E E E NE NE NE NE NE E E SE S S SW S S SW SW SW SW W W SW SW SW S S S SE E
HeatIndex 77 76 72 70 68 67 67 65 65 65 63 63 67 70 74 76 79 82 84 85 85 85 84 83 82 76 74 72 70 70 68 67 68 77 88 90 86 72 72 90 85 74 74 94 91 74 74 97 95 74 74 97 95
Rain Showers -- -- -- -- -- -- -- -- -- Slight Chance Chance Chance Likely Likely Likely Chance Chance Chance Chance Chance Chance Chance Chance Slight Chance -- -- -- -- -- -- -- -- -- -- -- Slight Chance Chance Chance Likely Likely Chance Chance -- -- Chance -- -- -- -- -- -- -- --
Thunder Storm -- -- -- -- -- -- -- -- -- -- Slight Chance Slight Chance Chance Chance Chance Slight Chance Slight Chance Slight Chance Slight Chance Slight Chance Slight Chance Slight Chance Slight Chance -- -- -- -- -- -- -- -- -- -- -- -- Slight Chance Chance Chance Likely Likely Chance Chance -- -- Chance -- -- -- -- -- -- -- --
WIND CHILL -- -- -- -- -- -- -- -- -- -- -- -- -- -- -- -- -- -- -- -- -- -- -- -- -- -- -- -- -- -- -- -- -- -- -- -- -- -- -- -- -- -- -- -- -- -- -- -- -- -- -- -- --
SPRAY COND
DRY COND
LIVESTOCK HEATSTRESS 74.10 73.64 70.62 68.95 67.44 66.50 66.68 64.86 64.86 64.86 63.00 63.00 66.64 69.01 71.99 73.26 75.00 74.78 75.87 77.14 77.14 77.14 75.87 76.36 75.22 73.26 71.91 70.62 68.83 69.01 67.19 66.55 67.19 73.80 78.08 79.52 77.46 71.06 71.06 78.87 76.97 72.91 72.91 81.25 79.38 72.66 72.91 82.28 80.76 72.91 72.91 81.76 81.74

Click on individual weather variable above in left-hand column (ie., TEMP, RH, QPF 12HR) to view state forecast maps






NWS 48 Hr. Forecast Maps,

Regional Hourly Observations For LEWIS County, Kentucky
Issued at 200 PM EDT SUN JUN 24 2018
NORTHEAST KENTUCKY
  
CITY           SKY/WX    TMP DP  RH WIND       PRES   REMARKS
LEXINGTON      FAIR      84  68  58 W9        29.99S                  
COVINGTON      FAIR      82  63  52 W10       29.98R                  
FRANKFORT      FAIR      83  67  58 VRB7G17   29.97S                  


Current NOWCAST not available:
Nowcasts are not issued routinely during fair weather. Only when
precipitation or other significant weather is occuring in this county will these
forecasts be issued. Currently, there is no short term forecast in effect.


Fire Weather Forecast For LEWIS County, KY
Provided by the National Weather Service:

Issued at: Sun Jun 24 14:05:01 EDT 2018

CLOUD COVER                     PCldy        PCldy        PCldy
PRECIP TYPE                     Tstms      Showers         None
CHANCE PRECIP (%)                  20           20            0
TEMP (24H TREND)              83 (+3)      64 (-3)           84
RH % (24H TREND)              57 (-6)      99 (+3)           51
20FTWND-AM(MPH)               Lgt/Var                   Lgt/Var
20FTWND-PM(MPH)                  W  6      Lgt/Var      Lgt/Var
PRECIP AMOUNT                    0.03         0.01         0.00
PRECIP DURATION                     1            0             
MIXING HGT(FT-AGL)               6730                      7770
TRANSPORT WND (MPH)             NW 15                      N  2
LAL                                 3            2            1
HAINES INDEX                        3            3            3

REMARKS...None.

.FORECAST FOR DAYS 3 THROUGH 7...
.MONDAY NIGHT...Partly cloudy. Lows in the mid 60s. Northeast winds around
5 mph. 
.TUESDAY...Partly sunny. Highs in the upper 80s. Southeast winds around
5 mph. 
.WEDNESDAY...Mostly cloudy. Showers and thunderstorms likely. Lows in the
lower 70s. Highs in the mid 80s. Southwest winds 5 to 10 mph. 
.THURSDAY...Mostly cloudy. A chance of showers and thunderstorms. Lows in
the lower 70s. Highs in the upper 80s. Southwest winds 5 to 10 mph. 
.FRIDAY...Partly cloudy. A chance of showers and thunderstorms. Lows in
the lower 70s. Highs in the lower 90s. Southwest winds around 5 mph. 
.SATURDAY...Partly cloudy. A chance of showers and thunderstorms. Lows in
the lower 70s. Highs in the lower 90s. South winds around 5 mph. 

SPC's Fire Weather Web Tool (Excellent!), SPC's Fire Weather Outlooks, NWS Fire Weather WEB, Fire Danger Class Map,
Keetch-Byram Drought Index, ROMAN Web, Haines Index ,
WFAS's 10-hr Dead Fuel Moist., WFAS's 100-hr Dead Fuel Moist., Probablity of Ignition, Visual blackness Map, Palmer Drought Index, HPC's Rainfall Forecast Maps


Hazardous Weather Outlook For LEWIS County, Kentucky
408 AM EDT Sun Jun 24 2018

 DAY ONE  Today and Tonight.

Hazardous weather is not expected at this time.

 DAYS TWO THROUGH SEVEN  Monday through Saturday.

Heat index values of 95 to 100 are expected on Thursday, rising to
around 100 on Friday and Saturday. 

 SPOTTER INFORMATION STATEMENT  

Spotter activation is not expected at this time.

Latest LEWIS County, Kentucky Watches, Warnings and Advisories.
Additional Drought Info.: UKAWC Drought Page, Kentucky Drought Watch


7-Day Forecast For LEWIS County, KY

THIS AFTERNOON
Partly cloudy. Near steady temperatures in the lower 80s. West winds around 10 mph.

TONIGHT
Partly cloudy. Lows in the mid 60s. Northwest winds around 5 mph in the evening, becoming light and variable.

MONDAY
Mostly cloudy with a chance of showers with a slight chance of thunderstorms. Highs in the mid 80s. East winds around 5 mph. Chance of rain 50 percent.

MONDAY NIGHT
Partly cloudy. A chance of showers in the evening. Lows in the mid 60s. East winds around 5 mph. Chance of rain 30 percent.

TUESDAY
Partly cloudy. A slight chance of showers and thunderstorms in the afternoon. Humid with highs in the mid 80s. Southeast winds around 5 mph, becoming south in the afternoon. Chance of rain 20 percent.

TUESDAY NIGHT
Partly cloudy with a chance of showers and thunderstorms. Lows in the lower 70s. Chance of rain 50 percent.

WEDNESDAY
Showers and thunderstorms likely. Highs in the mid 80s. Chance of rain 70 percent.

WEDNESDAY NIGHT
Partly cloudy with a chance of showers and thunderstorms. Lows in the lower 70s. Chance of rain 50 percent.

THURSDAY
Partly cloudy. Highs around 90.

THURSDAY NIGHT
Partly cloudy. Lows in the lower 70s.

FRIDAY
Partly cloudy. Highs in the lower 90s.

FRIDAY NIGHT
Partly cloudy. Lows in the lower 70s.

SATURDAY
Partly cloudy. Highs in the lower 90s.

Ag Weather Center, Department of Biosystems & Agricultural Engineering, University of Kentucky